Starlink 6274

operational
NORAD ID: 56776 Int'l Des: 2023-078 Owner: SPXS Country: US Constellation: starlink
LEOCIRCULAR

About Starlink 6274

Description loading...

Live Position

Loading 3D Globe...

Upcoming Passes

Altitude History

Altitude vs Time

uPlot chart will show altitude changes over time

Two-Line Element Set

1 56776U 23078K 25259.81085832 -.00000416 00000-0 -27091-4 0 9995
2 56776 70.0004 43.0497 0003070 270.3263 89.7544 14.98326382127120
Epoch: Sep 16, 2025 • Age: 28 hours

Current Status

Altitude 576.4 km
Velocity 7.58 km/s
Sub-Earth Point 30.13°N, 139.49°W
Launch Date May 31, 2023
Age 2.2 years
Type internet

Technical Details

Classification Payload
Mass 305.00 kg
Dry Mass 290.00 kg
Total Mass 305.00 kg
Length 0.20 m
Diameter 2.80 m
Span 9.00 m
Shape Box + pan
Manufacturer SPXS
Bus Type Starlink
Phase Status In Orbit
Owner/State SPXS/US

Large Constellations

Loading constellations...